TimeEST,TemperatureF,Dew PointF,Humidity,Sea Level PressureIn,VisibilityMPH,Wind Direction,Wind SpeedMPH,Gust SpeedMPH,PrecipitationIn,Events,Conditions,WindDirDegrees,DateUTC
12:53 AM,37.9,7.0,28,29.97,10.0,NW,15.0,20.7,N/A,,Clear,310,2013-01-22 05:53:00
1:53 AM,35.1,7.0,31,29.99,10.0,NW,9.2,-,N/A,,Clear,310,2013-01-22 06:53:00
2:53 AM,33.1,7.0,34,30.02,10.0,NW,10.4,17.3,N/A,,Clear,310,2013-01-22 07:53:00
3:53 AM,30.9,5.0,33,30.04,10.0,WNW,8.1,-,N/A,,Clear,300,2013-01-22 08:53:00
4:53 AM,28.9,1.9,32,30.07,10.0,WNW,6.9,-,N/A,,Clear,300,2013-01-22 09:53:00
5:53 AM,28.0,3.0,34,30.11,10.0,NW,6.9,-,N/A,,Clear,310,2013-01-22 10:53:00
6:53 AM,27.0,3.0,36,30.15,10.0,NNW,11.5,-,N/A,,Clear,330,2013-01-22 11:53:00
7:53 AM,26.1,1.9,35,30.18,10.0,NW,6.9,-,N/A,,Clear,310,2013-01-22 12:53:00
8:53 AM,28.0,-2.0,27,30.21,10.0,NNW,15.0,23.0,N/A,,Clear,330,2013-01-22 13:53:00
9:53 AM,27.0,-4.0,26,30.24,10.0,WNW,12.7,18.4,N/A,,Clear,300,2013-01-22 14:53:00
10:53 AM,30.0,-2.9,24,30.24,10.0,NW,16.1,-,N/A,,Clear,320,2013-01-22 15:53:00
11:53 AM,30.9,-2.9,23,30.22,10.0,WNW,11.5,-,N/A,,Clear,300,2013-01-22 16:53:00
12:53 PM,33.1,-4.0,20,30.20,10.0,WNW,13.8,-,N/A,,Clear,300,2013-01-22 17:53:00
1:53 PM,33.1,-2.0,22,30.18,10.0,West,9.2,19.6,N/A,,Clear,280,2013-01-22 18:53:00
2:53 PM,35.1,-2.9,20,30.17,10.0,NNW,12.7,-,N/A,,Clear,330,2013-01-22 19:53:00
3:53 PM,34.0,-4.0,20,30.18,10.0,NW,9.2,-,N/A,,Clear,320,2013-01-22 20:53:00
4:53 PM,33.1,-4.0,20,30.19,10.0,NW,5.8,-,N/A,,Clear,320,2013-01-22 21:53:00
5:53 PM,28.9,-2.0,26,30.22,10.0,North,5.8,-,N/A,,Clear,350,2013-01-22 22:53:00
6:53 PM,28.0,-2.0,27,30.23,10.0,Calm,Calm,-,N/A,,Clear,0,2013-01-22 23:53:00
7:53 PM,26.1,-0.0,32,30.24,10.0,NNW,5.8,-,N/A,,Clear,340,2013-01-23 00:53:00
8:53 PM,26.1,-2.0,30,30.25,10.0,Calm,Calm,-,N/A,,Clear,0,2013-01-23 01:53:00
9:53 PM,26.1,-0.9,31,30.27,10.0,NNW,5.8,-,N/A,,Clear,330,2013-01-23 02:53:00
10:53 PM,25.0,-2.0,31,30.28,10.0,NNW,6.9,-,N/A,,Clear,330,2013-01-23 03:53:00
11:53 PM,23.0,-0.0,37,30.28,10.0,NNW,5.8,-,N/A,,Clear,340,2013-01-23 04:53:00